FW1809 Hebron CT US current weather conditions

sailwx.info

Wind from 146 at 0 knots gusting 3

Air temperature 18.9° C
Dewpoint 18.1° C

Last reported at 2020-Jul-08 04:01 UTC.
Time now 2020-Jul-08 04:36 UTC

Location: N 41°38' W 072°20'.
View on Google Maps.

See reports from other nearby stations

  
Tides and Currents Weather Stations Pressure Air Temp Water Temp Dewpoint Dewpoint Depression Visibility Wind Speed Wind Dir Waves Ship Positions
date/time (UTC)wind fromknots sea level pressurealtimeterstation pressurevisibilityair tempwater tempwave heightnotes
2020-Jul-08 04:01 146 0 gusting 3 18.9
2020-Jul-08 03:46 146 18.9
2020-Jul-08 03:31 146 18.9
2020-Jul-08 03:15 148 18.9
2020-Jul-08 03:01 148 18.3
2020-Jul-08 02:45 148 18.3
2020-Jul-08 02:30 147 1 gusting 6 18.3
2020-Jul-08 02:15 157 0 gusting 4 18.3
2020-Jul-08 01:46 155 0 gusting 6 18.3
2020-Jul-08 01:31 142 0 gusting 4 18.3
2020-Jul-08 01:16 148 18.3
2020-Jul-08 01:01 148 0 gusting 3 18.3
2020-Jul-08 00:45 148 18.3
2020-Jul-08 00:30 148 0 gusting 4 18.3
2020-Jul-08 00:15 153 0 gusting 5 18.3
2020-Jul-08 00:00 146 0 gusting 4 18.3
2020-Jul-07 23:45 153 18.3
2020-Jul-07 23:30 146 0 gusting 3 18.9
2020-Jul-07 23:15 133 0 gusting 5 18.9
2020-Jul-07 23:00 119 0 gusting 3 18.9
2020-Jul-07 22:45 112 2 gusting 6 18.9
2020-Jul-07 22:30 156 18.9
2020-Jul-07 22:15 204 0 gusting 5 19.4
2020-Jul-07 22:00 184 19.4
2020-Jul-07 21:45 155 0 gusting 6 19.4
2020-Jul-07 21:30 199 19.4
2020-Jul-07 21:15 175 0 gusting 3 20.0
2020-Jul-07 21:00 236 20.0
2020-Jul-07 20:45 155 20.6
2020-Jul-07 20:30 225 20.6
2020-Jul-07 17:01 310 2 gusting 6 21.7
2020-Jul-07 16:47 242 1 gusting 6 21.1
2020-Jul-07 16:32 237 1 gusting 6 21.1
2020-Jul-07 16:16 131 1 gusting 6 21.7
2020-Jul-07 16:02 194 1 gusting 4 21.7
2020-Jul-07 13:15 116 18.9
2020-Jul-07 13:01 121 0 gusting 2 18.9
2020-Jul-07 12:46 157 18.3
2020-Jul-07 12:31 155 1 gusting 5 18.9
2020-Jul-07 12:16 136 0 gusting 3 18.3
2020-Jul-07 12:00 138 1 gusting 4 18.3
2020-Jul-07 11:45 146 0 gusting 4 17.8
2020-Jul-07 11:30 155 17.8
2020-Jul-07 11:15 155 17.2
2020-Jul-07 11:00 159 17.2
2020-Jul-07 10:45 144 17.2
2020-Jul-07 10:30 141 16.7
2020-Jul-07 10:15 143 16.7
2020-Jul-07 09:45 143 0 gusting 3 16.7
2020-Jul-07 09:30 142 16.7
2020-Jul-07 09:15 142 16.7
2020-Jul-07 09:00 142 16.1
2020-Jul-07 08:45 142 16.1
2020-Jul-07 08:30 142 16.1
2020-Jul-07 08:15 142 16.7
2020-Jul-07 08:00 142 16.7
2020-Jul-07 07:45 142 16.7
2020-Jul-07 07:30 142 16.7
2020-Jul-07 07:15 142 17.2
2020-Jul-07 07:00 142 16.7
2020-Jul-07 06:45 142 17.2
2020-Jul-07 06:30 142 17.2
2020-Jul-07 06:15 142 17.2
2020-Jul-07 06:02 140 17.2
2020-Jul-07 05:48 139 17.8
2020-Jul-07 05:32 139 17.8
2020-Jul-07 05:17 139 17.8
2020-Jul-07 05:01 140 17.8
2020-Jul-07 04:47 133 0 gusting 4 17.8
2020-Jul-07 04:31 259 0 gusting 7 17.8
2020-Jul-07 04:17 162 0 gusting 2 17.8
2020-Jul-07 04:01 162 17.8
2020-Jul-07 03:46 162 17.8
2020-Jul-07 03:32 162 17.8
2020-Jul-07 03:16 162 17.8
2020-Jul-07 03:01 162 17.8
2020-Jul-07 02:45 162 18.3
2020-Jul-07 02:31 162 18.3
2020-Jul-07 02:16 162 18.9
2020-Jul-07 02:01 162 18.9
2020-Jul-07 01:45 162 18.9
2020-Jul-07 01:30 163 19.4
2020-Jul-07 01:15 157 19.4
2020-Jul-07 01:01 142 1 gusting 3 19.4
2020-Jul-07 00:46 242 20.0
2020-Jul-07 00:31 252 20.0
2020-Jul-07 00:16 262 0 gusting 5 20.6
2020-Jul-07 00:00 232 1 gusting 7 20.6
2020-Jul-06 23:45 222 1 gusting 5 21.1
2020-Jul-06 23:30 277 0 gusting 8 21.1
2020-Jul-06 23:15 194 1 gusting 7 22.2
2020-Jul-06 23:01 276 3 gusting 7 22.8
2020-Jul-06 22:45 243 3 gusting 7 24.4
2020-Jul-06 22:30 148 2 gusting 7 25.0
2020-Jul-06 22:15 241 0 gusting 4 25.6
2020-Jul-06 22:00 142 0 gusting 4 25.6
2020-Jul-06 21:45 211 1 gusting 6 25.0
2020-Jul-06 21:30 148 1 gusting 6 25.0
2020-Jul-06 21:15 165 1 gusting 6 25.0
2020-Jul-06 21:00 115 2 gusting 6 25.6
2020-Jul-06 20:45 165 25.6
2020-Jul-06 20:30 188 0 gusting 4 26.1
2020-Jul-06 20:15 123 27.2
2020-Jul-06 20:00 118 27.8
2020-Jul-06 19:45 115 29.4
2020-Jul-06 19:30 086 27.8
2020-Jul-06 19:15 081 0 gusting 2 28.3
2020-Jul-06 19:00 084 28.3
2020-Jul-06 18:45 082 29.4
2020-Jul-06 18:30 080 30.6
2020-Jul-06 18:15 083 28.3
2020-Jul-06 18:00 083 0 gusting 2 29.4
2020-Jul-06 17:45 084 29.4
2020-Jul-06 17:30 085 0 gusting 2 29.4
2020-Jul-06 17:16 085 29.4
2020-Jul-06 17:02 070 30.6
2020-Jul-06 16:47 075 30.0
2020-Jul-06 16:31 076 2 gusting 6 30.0
2020-Jul-06 16:16 090 0 gusting 3 30.0
2020-Jul-06 16:01 055 0 gusting 6 28.9
2020-Jul-06 15:46 283 0 gusting 6 29.4
2020-Jul-06 15:32 263 1 gusting 6 28.9
2020-Jul-06 15:18 266 0 gusting 5 29.4
2020-Jul-06 15:01 013 0 gusting 3 28.9
2020-Jul-06 14:46 360 0 gusting 3 28.9
2020-Jul-06 14:31 313 0 gusting 3 28.3
2020-Jul-06 14:17 059 0 gusting 2 27.8
2020-Jul-06 14:01 048 1 gusting 3 27.8
2020-Jul-06 13:46 041 0 gusting 3 26.7
2020-Jul-06 13:31 039 27.2
2020-Jul-06 13:15 060 26.1
2020-Jul-06 13:01 071 1 gusting 4 26.1
2020-Jul-06 12:46 055 0 gusting 4 25.0
2020-Jul-06 12:30 225 25.0
2020-Jul-06 12:15 225 23.9
2020-Jul-06 12:00 225 22.2
2020-Jul-06 11:45 225 21.7
2020-Jul-06 11:30 225 20.0
2020-Jul-06 11:15 225 19.4
2020-Jul-06 11:00 225 18.9
2020-Jul-06 10:45 225 18.3
2020-Jul-06 10:30 225 18.3
2020-Jul-06 10:15 225 17.8
2020-Jul-06 10:00 225 17.8
2020-Jul-06 09:45 225 17.8
2020-Jul-06 09:30 225 17.8
2020-Jul-06 09:15 225 17.8
2020-Jul-06 09:01 225 18.3
2020-Jul-06 08:46 225 18.3
2020-Jul-06 08:31 225 18.9
2020-Jul-06 08:16 225 18.9
2020-Jul-06 08:03 225 18.9
2020-Jul-06 07:46 225 18.9
2020-Jul-06 07:31 225 18.9
2020-Jul-06 07:17 225 19.4
2020-Jul-06 07:01 225 19.4
2020-Jul-06 06:47 225 19.4
2020-Jul-06 06:31 225 19.4
2020-Jul-06 06:16 225 19.4
2020-Jul-06 06:01 225 20.0
2020-Jul-06 05:46 225 20.0
2020-Jul-06 05:31 225 20.0
2020-Jul-06 05:16 225 20.0
2020-Jul-06 05:01 225 20.6
2020-Jul-06 04:46 225 20.6
2020-Jul-06 04:30 225 20.6
2020-Jul-06 04:15 225 20.6
2020-Jul-06 04:01 225 20.6